Regional Weather Roundup
Issued by NWS

Home | Current Version | Previous Version | Text Only | Print | Product List | Glossary Off
Versions: 1 2 3 4 5 6 7 8 9 10 11 12 13 14 15 16 17 18 19 20 21 22 23 24 25 26 27 28 29 30 31 32 33 34 35 36 37 38 39 40 41 42 43 44 45 46 47 48 49 50

000
ASUS43 KBIS 231402
RWRND

NORTH DAKOTA REGIONAL WEATHER ROUNDUP
NATIONAL WEATHER SERVICE BISMARCK ND
900 AM CDT MON OCT 23 2017

NOTE: "FAIR" INDICATES FEW OR NO CLOUDS BELOW 12,000 FEET WITH NO
SIGNIFICANT WEATHER AND/OR OBSTRUCTIONS TO VISIBILITY.


NDZ001>003-009>011-017-231500-
NORTHWEST NORTH DAKOTA

CITY           SKY/WX    TMP DP  RH WIND       PRES   REMARKS
WILLISTON        N/A    N/A N/A N/A MISG      30.11R
MINOT          CLOUDY    42  37  82 W17G24    30.00R
MINOT AFB      CLOUDY    40  36  84 NW18G26   29.98R
$$

NDZ018>021-031>035-040>046-231500-
SOUTHWEST NORTH DAKOTA

CITY           SKY/WX    TMP DP  RH WIND       PRES   REMARKS
BISMARCK       CLOUDY    46  37  71 NW18G25   30.04R
DICKINSON      PTCLDY    42  32  67 W17       30.10R
GARRISON         N/A     41  36  82 NW18      30.02R
HETTINGER ARPT CLEAR     42  30  62 NW20      30.14R
$$

NDZ004>008-012>016-024-026-027-054-231500-
NORTHEAST NORTH DAKOTA

CITY           SKY/WX    TMP DP  RH WIND       PRES   REMARKS
GRAND FORKS    LGT RAIN  46  40  79 N26G45    29.81R
DEVILS LAKE    CLOUDY    41  38  89 NW17      29.91R
$$

NDZ022-023-025-028>030-036>039-047>053-231500-
SOUTHEAST NORTH DAKOTA

CITY           SKY/WX    TMP DP  RH WIND       PRES   REMARKS
FARGO          CLOUDY    47  40  76 NW20      29.81R
JAMESTOWN      LGT RAIN  44  37  76 NW21G36   29.92R
$$




USA.gov is the U.S. government's official web portal to all federal, state and local government web resources and services.